sat.trackr.live / text

‹ back to catalog

STARLINK-33867

NORAD 63795 · 2025-091W

PAYLOAD ACTIVE UNKNOWN

§ Identity

Operator
Country
US
Launch date
2025-05-02
Launch site
AFETR
Launch vehicle
Mass (kg)
RCS (m²)

Purposes: comms

External: N2YO · Heavens-Above · Gunter

§ Orbital elements

Epoch: 2026-09-20T08:49:10.413696Z

Period
94.27 min
Inclination
43.0008°
Eccentricity
0.0001044
Mean motion
15.27587964 rev/d
Perigee alt
482.3 km
Apogee alt
483.7 km
Semi-major
6,861.2 km
B*
6.0084e-4
RAAN
33.2560°
Arg perigee
259.4318°
Mean anomaly
100.6416°
Rev number
7,867

§ Raw data

STARLINK-338671 63795U 25091W   26263.36748164  .00016312  00000+0  60084-3 0  99982 63795  43.0008  33.2560 0001044 259.4318 100.6416 15.27587964 78677

JSON: /api/v1/satellites/63795 · /tle

For live sub-satellite position, see the globe view (requires WebGL).

§ Visibility from observer

Set your observer location to see the next 7 days of passes ≥ 10°. The values pass through the URL so the page stays shareable.

No JS? Fill the form by hand. The geolocation button needs JavaScript.